Ceiba, PR

1:54 PM AST on January 16, 2017 (GMT -0400)
Roosevelt Roads Ns

Weather History for TJNR - June, 2012

Change the Weather History Date:

Wednesday, June 27, 2012

  Actual Average Record
Temperature  
Mean Temperature 86 °F -  
Max Temperature 91 °F 84 °F 91 °F (2012)
Min Temperature 80 °F 74 °F 71 °F (2011)
Cooling Degree Days 20    
Growing Degree Days 36 (Base 50)    
Moisture  
Dew Point 75 °F    
Average Humidity 73    
Maximum Humidity 84    
Minimum Humidity 59    
Precipitation  
Precipitation 0.00 in - - ()
Sea Level Pressure  
Sea Level Pressure 30.09 in    
Wind  
Wind Speed 8 mph (ESE)    
Max Wind Speed 15 mph    
Max Gust Speed 21 mph    
Visibility 10 miles    
Events      
Averages and records for this station are not official NWS values.
T = Trace of Precipitation, MM = Missing Value Source: NWS Daily Summary

Daily Weather History Graph

Daily Weather History Graph

Search for Another Location

Airport or City:

Trip Planner

Search our weather history database for the weather conditions in past years. The results will help you decide how hot, cold, wet, or windy it might be!

Date:

Astronomy

Jun. 27, 2012 Rise Set
Actual Time 5:49 AM AST 7:02 PM AST
Civil Twilight 5:24 AM AST 7:26 PM AST
Nautical Twilight 4:56 AM AST 7:55 PM AST
Astronomical Twilight 4:26 AM AST 8:24 PM AST
Moon 12:55 PM AST (6/27) 12:06 AM AST (6/27)
Length of Visible Light 14h 01m
Length of Day
13h 13m
First Quarter, 56% of the Moon is Illuminated
Jun 27
First Quarter
Jul 3
Full
Jul 10
Last Quarter
Jul 19
New
Jul 26
First Quarter

Hourly Weather History & Observations

Time (AST) Temp. Heat Index Dew Point Humidity Pressure Visibility Wind Dir Wind Speed Gust Speed Precip Events Conditions
12:20 AM 80.6 °F 86.2 °F 75.2 °F 84% 30.07 in 10.0 mi Calm Calm - N/A   Overcast
12:53 AM 82.9 °F 90.8 °F 75.9 °F 79% 30.06 in 10.0 mi ESE 10.4 mph - N/A   Overcast
1:16 AM 84.2 °F 94.1 °F 77.0 °F 79% 30.05 in 10.0 mi ESE 8.1 mph - N/A   Overcast
1:23 AM 84.2 °F 94.1 °F 77.0 °F 79% 30.05 in 10.0 mi ESE 6.9 mph - N/A   Overcast
1:48 AM 84.2 °F 92.3 °F 75.2 °F 74% 30.05 in 10.0 mi ESE 10.4 mph - N/A   Overcast
1:53 AM 84.0 °F 92.6 °F 75.9 °F 76% 30.05 in 10.0 mi ESE 9.2 mph - N/A   Overcast
2:32 AM 84.2 °F 92.3 °F 75.2 °F 74% 30.05 in 9.0 mi ESE 10.4 mph - N/A   Overcast
2:53 AM 82.9 °F 90.8 °F 75.9 °F 79% 30.05 in 9.0 mi ESE 12.7 mph - N/A   Overcast
3:18 AM 82.4 °F 89.5 °F 75.2 °F 79% 30.05 in 9.0 mi SE 9.2 mph - N/A   Overcast
3:53 AM 82.9 °F 90.8 °F 75.9 °F 79% 30.06 in 9.0 mi SE 11.5 mph - N/A   Overcast
4:53 AM 82.9 °F 90.2 °F 75.0 °F 77% 30.07 in 9.0 mi ESE 9.2 mph - N/A   Overcast
5:53 AM 82.9 °F 90.8 °F 75.9 °F 79% 30.08 in 8.0 mi ESE 8.1 mph - N/A   Overcast
6:06 AM 84.2 °F 92.3 °F 75.2 °F 74% 30.08 in 8.0 mi ESE 9.2 mph - N/A   Overcast
6:53 AM 84.0 °F 92.6 °F 75.9 °F 76% 30.10 in 8.0 mi ESE 11.5 mph - N/A   Overcast
7:09 AM 84.2 °F 92.3 °F 75.2 °F 74% 30.10 in 8.0 mi ESE 13.8 mph 20.7 mph N/A   Overcast
11:53 AM 90.0 °F 101.3 °F 75.9 °F 63% 30.13 in 10.0 mi ESE 10.4 mph - N/A   Clear
12:47 PM 91.4 °F 102.5 °F 75.2 °F 59% 30.12 in 10.0 mi ESE 15.0 mph - N/A   Mostly Cloudy
12:53 PM 90.0 °F 101.3 °F 75.9 °F 63% 30.12 in 10.0 mi ESE 13.8 mph - N/A   Mostly Cloudy
1:53 PM 90.0 °F 100.2 °F 75.0 °F 61% 30.10 in 10.0 mi ESE 13.8 mph - N/A   Overcast
2:21 PM 89.6 °F 99.8 °F 75.2 °F 62% 30.10 in 9.0 mi ESE 11.5 mph - N/A   Overcast
2:53 PM 90.0 °F 100.2 °F 75.0 °F 61% 30.09 in 10.0 mi ESE 13.8 mph - N/A   Overcast
3:53 PM 90.0 °F 100.2 °F 75.0 °F 61% 30.09 in 10.0 mi ESE 12.7 mph - N/A   Overcast
4:53 PM 88.0 °F 96.5 °F 73.9 °F 63% 30.08 in 10.0 mi ESE 11.5 mph - N/A   Overcast
5:53 PM 86.0 °F 96.0 °F 75.9 °F 72% 30.09 in 9.0 mi East 9.2 mph - N/A   Overcast
6:53 PM 84.9 °F 94.1 °F 75.9 °F 74% 30.09 in 9.0 mi East 5.8 mph - N/A   Overcast
7:53 PM 84.0 °F 92.6 °F 75.9 °F 76% 30.11 in 10.0 mi East 6.9 mph - N/A   Overcast
8:35 PM 84.2 °F 92.3 °F 75.2 °F 74% 30.11 in 10.0 mi East 6.9 mph - N/A   Overcast
8:53 PM 84.0 °F 92.6 °F 75.9 °F 76% 30.11 in 10.0 mi ENE 8.1 mph - N/A   Overcast
9:01 PM 84.2 °F 92.3 °F 75.2 °F 74% 30.11 in 10.0 mi East 8.1 mph - N/A   Overcast
9:53 PM 84.0 °F 92.6 °F 75.9 °F 76% 30.12 in 10.0 mi East 8.1 mph - N/A   Overcast
10:46 PM 82.4 °F 89.5 °F 75.2 °F 79% 30.12 in 10.0 mi East 8.1 mph - N/A   Overcast
10:53 PM 82.9 °F 90.2 °F 75.0 °F 77% 30.12 in 10.0 mi East 6.9 mph - N/A   Overcast
11:53 PM 82.9 °F 89.4 °F 73.9 °F 74% 30.12 in 10.0 mi ENE 4.6 mph - N/A   Overcast